Almeria, Spain

10:33 PM CET on November 17, 2018 (GMT +0100)
Almeria

Weather History for LEAM - November, 2018

Change the Weather History Date:

Friday, November 9, 2018

  Actual Average Record
Temperature  
Mean Temperature 63 °F -  
Max Temperature 69 °F 63 °F 75 °F (2013)
Min Temperature 57 °F 51 °F 46 °F (2001)
Degree Days  
Heating Degree Days 2    
Growing Degree Days 13 (Base 50)    
Moisture  
Dew Point 46 °F    
Average Humidity 58    
Maximum Humidity 88    
Minimum Humidity 20    
Precipitation  
Precipitation 0.00 in 0.04 in - ()
Sea Level Pressure  
Sea Level Pressure 30.07 in    
Wind  
Wind Speed 11 mph ()    
Max Wind Speed 23 mph    
Max Gust Speed 29 mph    
Visibility 7.6 miles    
Events      
Averages and records for this station are not official NWS values.
T = Trace of Precipitation, MM = Missing Value Source: Averaged Metar Reports

Daily Weather History Graph

Daily Weather History Graph

Search for Another Location

Airport or City:

Astronomy

Nov. 09, 2018 Rise Set
Actual Time 7:41 AM CET 6:04 PM CET
Civil Twilight 7:14 AM CET 6:32 PM CET
Nautical Twilight 6:43 AM CET 7:03 PM CET
Astronomical Twilight 6:12 AM CET 7:33 PM CET
Moon 9:15 AM CET (11/9) 7:41 PM CET (11/9)
Length of Visible Light 11h 18m
Length of Day
10h 23m
Waxing Crescent, 4% of the Moon is Illuminated
Nov 9
Waxing Crescent
Nov 15
First Quarter
Nov 23
Full
Nov 30
Last Quarter
Dec 7
New

Hourly Weather History & Observations

Time (CET) Temp. Dew Point Humidity Pressure Visibility Wind Dir Wind Speed Gust Speed Precip Events Conditions
12:00 AM 60.8 °F 57.2 °F 88% 30.01 in 6.2 mi WSW 18.4 mph - N/A   Unknown
12:30 AM 60.8 °F 57.2 °F 88% 30.01 in 6.2 mi SW 19.6 mph - N/A   Unknown
1:00 AM 60.8 °F 57.2 °F 88% 30.01 in 6.2 mi WSW 15.0 mph - N/A   Unknown
1:30 AM 59.0 °F 55.4 °F 88% 30.01 in 6.2 mi WSW 16.1 mph - N/A   Unknown
2:00 AM 60 °F 57 °F 87% 30.01 in - SW 19.6 mph - -  
2:00 AM 60.8 °F 55.4 °F 82% 30.01 in 6.2 mi SW 18.4 mph - N/A   Unknown
2:30 AM 59.0 °F 55.4 °F 88% 30.04 in 6.2 mi WNW 8.1 mph - N/A   Unknown
3:00 AM 60 °F 46 °F 50% 30.03 in - NNW 10.4 mph - -  
3:00 AM 59.0 °F 46.4 °F 63% 30.01 in 6.2 mi NNW 8.1 mph - N/A   Unknown
3:30 AM 59.0 °F 42.8 °F 55% 30.01 in 6.2 mi WNW 6.9 mph - N/A   Unknown
4:00 AM 59.0 °F 42.8 °F 55% 30.01 in 6.2 mi NW 8.1 mph - N/A   Unknown
4:30 AM 59.0 °F 41.0 °F 51% 30.04 in 6.2 mi NW 6.9 mph - N/A   Unknown
5:00 AM 58 °F 42 °F 43% 30.04 in - West 6.9 mph - -  
5:00 AM 59.0 °F 41.0 °F 51% 30.04 in 6.2 mi WNW 5.8 mph - N/A   Partly Cloudy
5:30 AM 57.2 °F 41.0 °F 55% 30.04 in 6.2 mi NNW 6.9 mph - N/A   Partly Cloudy
6:00 AM 58 °F 38 °F 36% 30.06 in - West 5.8 mph - -  
6:00 AM 59.0 °F 37.4 °F 45% 30.04 in - West 5.8 mph - N/A   Clear
6:30 AM 59.0 °F 33.8 °F 39% 30.06 in - Variable 4.6 mph - N/A   Clear
7:00 AM 59.0 °F 30.2 °F 34% 30.06 in - NW 18.4 mph - N/A   Clear
7:30 AM 59.0 °F 32.0 °F 36% 30.06 in 6.2 mi NW 12.7 mph - N/A   Partly Cloudy
8:00 AM 59.0 °F 32.0 °F 36% 30.09 in 6.2 mi WNW 16.1 mph - N/A   Partly Cloudy
8:30 AM 59.0 °F 33.8 °F 39% 30.09 in - NW 17.3 mph - N/A   Clear
9:00 AM 60 °F 34 °F 26% 30.11 in - NW 16.1 mph - -  
9:00 AM 60.8 °F 33.8 °F 36% 30.09 in - NW 15.0 mph - N/A   Clear
9:30 AM 60.8 °F 33.8 °F 36% 30.09 in - NW 20.7 mph - N/A   Clear
10:00 AM 64 °F 33 °F 21% 30.12 in 31 mi WNW 23.0 mph - -   Scattered Clouds
10:00 AM 62.6 °F 32.0 °F 32% 30.09 in - NW 21.9 mph - N/A   Clear
10:30 AM 64.4 °F 33.8 °F 32% 30.09 in - WNW 16.1 mph 28.8 mph N/A   Clear
11:00 AM 66 °F 35 °F 20% 30.11 in - WNW 11.5 mph - -  
11:00 AM 66.2 °F 35.6 °F 32% 30.09 in - WNW 12.7 mph - N/A   Clear
11:30 AM 66.2 °F 37.4 °F 35% 30.09 in - Variable 6.9 mph 18.4 mph N/A   Clear
12:00 PM 69 °F 46 °F 33% 30.11 in - West 11.5 mph - -  
12:00 PM 69.8 °F 33.8 °F 27% 30.09 in - WNW 11.5 mph - N/A   Clear
12:30 PM 66.2 °F 42.8 °F 43% 30.09 in - South 5.8 mph - N/A   Clear
1:00 PM 64.4 °F 48.2 °F 56% 30.09 in - SSW 13.8 mph - N/A   Clear
1:30 PM 68.0 °F 37.4 °F 33% 30.06 in - WSW 12.7 mph - N/A   Clear
2:00 PM 64.4 °F 50.0 °F 59% 30.06 in - SSW 12.7 mph - N/A   Clear
2:30 PM 66.2 °F 50.0 °F 56% 30.06 in - SW 15.0 mph - N/A   Clear
3:00 PM 65 °F 54 °F 58% 30.07 in - SSW 13.8 mph - -  
3:00 PM 64.4 °F 53.6 °F 68% 30.06 in - SW 12.7 mph - N/A   Clear
3:30 PM 64.4 °F 51.8 °F 64% 30.06 in - SW 12.7 mph - N/A   Clear
4:00 PM 64 °F 55 °F 64% 30.06 in 25 mi SW 11.5 mph - -   Scattered Clouds
4:00 PM 64.4 °F 53.6 °F 68% 30.06 in - SW 10.4 mph - N/A   Clear
4:30 PM 62.6 °F 53.6 °F 72% 30.06 in - SSW 9.2 mph - N/A   Clear
5:00 PM 62.6 °F 53.6 °F 72% 30.06 in - SW 9.2 mph - N/A   Clear
5:30 PM 60.8 °F 53.6 °F 77% 30.06 in - SW 10.4 mph - N/A   Clear
6:00 PM 61 °F 55 °F 73% 30.08 in - WSW 9.2 mph - -  
6:00 PM 60.8 °F 53.6 °F 77% 30.06 in - SW 9.2 mph - N/A   Clear
6:30 PM 59.0 °F 51.8 °F 77% 30.06 in - WSW 6.9 mph - N/A   Clear
7:00 PM 59 °F 52 °F 70% 30.09 in 19 mi NNW 3.5 mph - -   Partly Cloudy
7:00 PM 59.0 °F 50.0 °F 72% 30.09 in - Variable 2.3 mph - N/A   Clear
7:30 PM 59.0 °F 50.0 °F 72% 30.09 in - NE 4.6 mph - N/A   Clear
8:00 PM 57 °F 52 °F 76% 30.12 in - NE 6.9 mph - -  
8:00 PM 57.2 °F 50.0 °F 77% 30.09 in - ENE 6.9 mph - N/A   Clear
8:30 PM 57.2 °F 50.0 °F 77% 30.12 in - NE 6.9 mph - N/A   Clear
9:00 PM 57 °F 49 °F 67% 30.12 in - NNE 6.9 mph - -  
9:00 PM 57.2 °F 48.2 °F 72% 30.12 in - NE 6.9 mph - N/A   Clear
9:30 PM 57.2 °F 50.0 °F 77% 30.12 in - ENE 9.2 mph - N/A   Clear
10:00 PM 57 °F 52 °F 76% 30.12 in 19 mi NE 6.9 mph - -   Scattered Clouds
10:00 PM 57.2 °F 50.0 °F 77% 30.12 in - NE 5.8 mph - N/A   Clear
10:30 PM 59.0 °F 50.0 °F 72% 30.09 in - NNE 6.9 mph - N/A   Clear
11:00 PM 58 °F 50 °F 66% 30.13 in - North 6.9 mph - -  
11:00 PM 59.0 °F 48.2 °F 67% 30.12 in 6.2 mi North 6.9 mph - N/A   Unknown
11:30 PM 57.2 °F 46.4 °F 67% 30.12 in 6.2 mi NNE 4.6 mph - N/A   Unknown